,,Stat6,,Stat2,,Stat8,,Stat9,,Stat10,,Wind1,,Wind1,
time,status,PA1M_AVG,status,PR1M_SUM,status,RH1M_AVG,status,SR1M_AVG,status,TA1M_AVG,status,W1dAve1m,status,W1sAve1m,
2004-01-16, 00:00:00,VALID,918.993,VALID,0,VALID,95.1122,VALID,-0.0169808,VALID,20.5177,VALID,115,VALID,0.64117,
2004-01-16, 00:01:00,VALID,918.968,VALID,0,VALID,95.1516,VALID,0,VALID,20.4949,VALID,136,VALID,0.536932,
2004-01-16, 00:02:00,VALID,918.951,VALID,0,VALID,95.2076,VALID,-0.0339617,VALID,20.479,VALID,126,VALID,0.77753,
2004-01-16, 00:03:00,VALID,918.938,VALID,0,VALID,95.1974,VALID,-0.0169808,VALID,20.4596,VALID,128,VALID,1.10747,
2004-01-16, 00:04:00,VALID,918.916,VALID,0,VALID,95.2267,VALID,-0.0509425,VALID,20.4668,VALID,119,VALID,0.899148,
2004-01-16, 00:05:00,VALID,918.903,VALID,0,VALID,95.2152,VALID,-0.0169808,VALID,20.4666,VALID,129,VALID,0.989901,
2004-01-16, 00:06:00,VALID,918.885,VALID,0,VALID,95.1236,VALID,-0.0509425,VALID,20.4865,VALID,137,VALID,0.801897,
2004-01-16, 00:07:00,VALID,918.871,VALID,0,VALID,94.9825,VALID,-0.0339617,VALID,20.4862,VALID,118,VALID,0.666159,
2004-01-16, 00:08:00,VALID,918.852,VALID,0,VALID,94.9507,VALID,-0.0169808,VALID,20.4994,VALID,137,VALID,0.487926,
2004-01-16, 00:09:00,VALID,918.867,VALID,0,VALID,94.9634,VALID,-0.0339617,VALID,20.4954,VALID,143,VALID,0.692708,
2004-01-16, 00:10:00,VALID,918.847,VALID,0,VALID,94.8998,VALID,-0.0169808,VALID,20.5021,VALID,135,VALID,0.866319,
2004-01-16, 00:11:00,VALID,918.842,VALID,0,VALID,94.835,VALID,-0.0169808,VALID,20.5091,VALID,120,VALID,0.567472,
2004-01-16, 00:12:00,VALID,918.839,VALID,0,VALID,94.8019,VALID,-0.0169808,VALID,20.5161,VALID,101,VALID,0.55231,
2004-01-16, 00:13:00,VALID,918.832,VALID,0,VALID,94.8439,VALID,-0.0169808,VALID,20.4827,VALID,69,VALID,0.495808,
2004-01-16, 00:14:00,VALID,918.814,VALID,0,VALID,94.8681,VALID,-0.0509425,VALID,20.483,VALID,94,VALID,0.556686,
2004-01-16, 00:15:00,VALID,918.812,VALID,0,VALID,94.8464,VALID,0,VALID,20.483,VALID,12,VALID,0.372275,
2004-01-16, 00:16:00,VALID,918.803,VALID,0,VALID,94.8706,VALID,-0.0339617,VALID,20.4892,VALID,22,VALID,0.233648,
2004-01-16, 00:17:00,VALID,918.804,VALID,0,VALID,94.8121,VALID,-0.0169808,VALID,20.486,VALID,22,VALID,0.187309,
2004-01-16, 00:18:00,VALID,918.811,VALID,0,VALID,94.7447,VALID,-0.0679233,VALID,20.4991,VALID,55,VALID,0.529948,
2004-01-16, 00:19:00,VALID,918.802,VALID,0,VALID,94.5845,VALID,-0.0339617,VALID,20.5029,VALID,100,VALID,0.782138,
2004-01-16, 00:20:00,VALID,918.816,VALID,0,VALID,94.4802,VALID,-0.0849042,VALID,20.4989,VALID,119,VALID,0.748857,
2004-01-16, 00:21:00,VALID,918.808,VALID,0,VALID,94.4421,VALID,-0.0679233,VALID,20.5059,VALID,101,VALID,0.905035,
2004-01-16, 00:22:00,VALID,918.81,VALID,0,VALID,94.4573,VALID,-0.0509425,VALID,20.5088,VALID,138,VALID,0.700149,
2004-01-16, 00:23:00,VALID,918.821,VALID,0,VALID,94.3899,VALID,-0.0849042,VALID,20.5153,VALID,98,VALID,0.728087,
2004-01-16, 00:24:00,VALID,918.806,VALID,0,VALID,94.3874,VALID,-0.0849042,VALID,20.5126,VALID,122,VALID,0.54794,
2004-01-16, 00:25:00,VALID,918.813,VALID,0,VALID,94.4866,VALID,-0.0509425,VALID,20.5121,VALID,145,VALID,1.08358,
2004-01-16, 00:26:00,VALID,918.815,VALID,0,VALID,94.4472,VALID,-0.0849042,VALID,20.5086,VALID,126,VALID,0.960392,
2004-01-16, 00:27:00,VALID,918.838,VALID,0,VALID,94.3518,VALID,-0.0169808,VALID,20.5252,VALID,121,VALID,0.983803,
2004-01-16, 00:28:00,VALID,918.84,VALID,0,VALID,94.4484,VALID,-0.0509425,VALID,20.5148,VALID,124,VALID,0.785156,
2004-01-16, 00:29:00,VALID,918.844,VALID,0,VALID,94.5921,VALID,-0.0339617,VALID,20.5218,VALID,137,VALID,0.790551,
2004-01-16, 00:30:00,VALID,918.849,VALID,0,VALID,94.7155,VALID,-0.0509425,VALID,20.5177,VALID,147,VALID,1.23495,
2004-01-16, 00:31:00,VALID,918.841,VALID,0,VALID,94.7053,VALID,-0.0169808,VALID,20.5481,VALID,123,VALID,0.684896,
2004-01-16, 00:32:00,VALID,918.832,VALID,0,VALID,94.7028,VALID,-0.0849042,VALID,20.5578,VALID,154,VALID,0.580433,
2004-01-16, 00:33:00,VALID,918.828,VALID,0,VALID,94.7473,VALID,-0.0339617,VALID,20.5675,VALID,117,VALID,0.537695,
2004-01-16, 00:34:00,VALID,918.808,VALID,0,VALID,94.6888,VALID,-0.0339617,VALID,20.5635,VALID,147,VALID,0.964944,
2004-01-16, 00:35:00,VALID,918.783,VALID,0,VALID,94.7053,VALID,-0.0169808,VALID,20.5831,VALID,134,VALID,1.06232,
2004-01-16, 00:36:00,VALID,918.755,VALID,0,VALID,94.6608,VALID,-0.0169808,VALID,20.5672,VALID,138,VALID,1.19752,
2004-01-16, 00:37:00,VALID,918.734,VALID,0,VALID,94.6303,VALID,-0.0339617,VALID,20.5603,VALID,108,VALID,1.10156,
2004-01-16, 00:38:00,VALID,918.708,VALID,0,VALID,94.6074,VALID,-0.0339617,VALID,20.5643,VALID,120,VALID,1.60603,
2004-01-16, 00:39:00,VALID,918.688,VALID,0,VALID,94.526,VALID,-0.0509425,VALID,20.5608,VALID,105,VALID,1.54518,
2004-01-16, 00:40:00,VALID,918.669,VALID,0,VALID,94.4802,VALID,-0.0339617,VALID,20.56,VALID,130,VALID,1.42622,
2004-01-16, 00:41:00,VALID,918.646,VALID,0,VALID,94.3035,VALID,-0.0169808,VALID,20.5866,VALID,126,VALID,1.41315,
2004-01-16, 00:42:00,VALID,918.645,VALID,0,VALID,94.2132,VALID,-0.0509425,VALID,20.5993,VALID,114,VALID,0.81612,
2004-01-16, 00:43:00,VALID,918.63,VALID,0,VALID,94.1204,VALID,-0.0509425,VALID,20.6057,VALID,125,VALID,1.43626,
2004-01-16, 00:44:00,VALID,918.622,VALID,0,VALID,93.9779,VALID,-0.0679233,VALID,20.6251,VALID,125,VALID,1.61787,
2004-01-16, 00:45:00,VALID,918.628,VALID,0,VALID,93.8609,VALID,-0.0679233,VALID,20.6445,VALID,125,VALID,1.35102,
2004-01-16, 00:46:00,VALID,918.62,VALID,0,VALID,93.8419,VALID,-0.0339617,VALID,20.6517,VALID,112,VALID,1.48256,
2004-01-16, 00:47:00,VALID,918.607,VALID,0,VALID,93.8177,VALID,-0.0339617,VALID,20.638,VALID,121,VALID,1.54668,
2004-01-16, 00:48:00,VALID,918.584,VALID,0,VALID,93.8088,VALID,-0.0339617,VALID,20.6353,VALID,125,VALID,1.66051,
2004-01-16, 00:49:00,VALID,918.564,VALID,0,VALID,93.7045,VALID,-0.0509425,VALID,20.6348,VALID,119,VALID,1.26438,
2004-01-16, 00:50:00,VALID,918.536,VALID,0,VALID,93.613,VALID,-0.0339617,VALID,20.6477,VALID,125,VALID,1.36384,
2004-01-16, 00:51:00,VALID,918.521,VALID,0,VALID,93.627,VALID,-0.0509425,VALID,20.6472,VALID,104,VALID,0.626143,
2004-01-16, 00:52:00,VALID,918.491,VALID,0,VALID,93.6855,VALID,-0.0169808,VALID,20.6504,VALID,104,VALID,0.922602,
2004-01-16, 00:53:00,VALID,918.477,VALID,0,VALID,93.7745,VALID,-0.0509425,VALID,20.645,VALID,109,VALID,1.18731,
2004-01-16, 00:54:00,VALID,918.457,VALID,0,VALID,93.8953,VALID,-0.0509425,VALID,20.609,VALID,111,VALID,0.67793,
2004-01-16, 00:55:00,VALID,918.439,VALID,0,VALID,93.964,VALID,-0.0169808,VALID,20.6127,VALID,104,VALID,0.742759,
2004-01-16, 00:56:00,VALID,918.416,VALID,0,VALID,94.0123,VALID,-0.0509425,VALID,20.5799,VALID,130,VALID,1.05585,
2004-01-16, 00:57:00,VALID,918.401,VALID,0,VALID,94.0263,VALID,-0.0339617,VALID,20.5667,VALID,136,VALID,0.967262,
2004-01-16, 00:58:00,VALID,918.394,VALID,0,VALID,93.9538,VALID,0.0169808,VALID,20.5694,VALID,123,VALID,1.01445,
2004-01-16, 00:59:00,VALID,918.375,VALID,0,VALID,93.9283,VALID,-0.0339617,VALID,20.5823,VALID,104,VALID,0.817769,
2004-01-16, 01:00:00,VALID,918.357,VALID,0,VALID,94.0199,VALID,0,VALID,20.5729,VALID,100,VALID,0.788477,
2004-01-16, 01:01:00,VALID,918.33,VALID,0,VALID,94.0428,VALID,-0.0169808,VALID,20.5732,VALID,106,VALID,0.813368,
2004-01-16, 01:02:00,VALID,918.32,VALID,0,VALID,94.0797,VALID,0,VALID,20.5538,VALID,104,VALID,1.02592,
2004-01-16, 01:03:00,VALID,918.297,VALID,0,VALID,93.9563,VALID,0,VALID,20.5466,VALID,109,VALID,1.14386,
2004-01-16, 01:04:00,VALID,918.282,VALID,0,VALID,93.8279,VALID,0,VALID,20.5565,VALID,111,VALID,1.01422,
2004-01-16, 01:05:00,VALID,918.261,VALID,0,VALID,93.8012,VALID,-0.0169808,VALID,20.5796,VALID,92,VALID,0.790972,
2004-01-16, 01:06:00,VALID,918.236,VALID,0,VALID,93.7707,VALID,0,VALID,20.5923,VALID,97,VALID,0.839658,
2004-01-16, 01:07:00,VALID,918.206,VALID,0,VALID,93.688,VALID,-0.0169808,VALID,20.5885,VALID,97,VALID,1.05339,
2004-01-16, 01:08:00,VALID,918.193,VALID,0,VALID,93.6397,VALID,-0.0169808,VALID,20.6079,VALID,104,VALID,0.962798,
2004-01-16, 01:09:00,VALID,918.165,VALID,0,VALID,93.6384,VALID,0,VALID,20.6184,VALID,112,VALID,0.975632,
2004-01-16, 01:10:00,VALID,918.14,VALID,0,VALID,93.5583,VALID,-0.0169808,VALID,20.6114,VALID,94,VALID,1.05788,
2004-01-16, 01:11:00,VALID,918.115,VALID,0,VALID,93.3078,VALID,0,VALID,20.6278,VALID,92,VALID,1.27028,
2004-01-16, 01:12:00,VALID,918.095,VALID,0,VALID,93.1311,VALID,0,VALID,20.6504,VALID,86,VALID,1.42759,
2004-01-16, 01:13:00,VALID,918.081,VALID,0,VALID,92.967,VALID,0,VALID,20.6725,VALID,88,VALID,1.09133,
2004-01-16, 01:14:00,VALID,918.068,VALID,0,VALID,92.9568,VALID,-0.0339617,VALID,20.6857,VALID,91,VALID,1.12715,
2004-01-16, 01:15:00,VALID,918.062,VALID,0,VALID,92.8526,VALID,-0.0169808,VALID,20.6787,VALID,67,VALID,1.14953,
2004-01-16, 01:16:00,VALID,918.077,VALID,0,VALID,92.8271,VALID,-0.0169808,VALID,20.7056,VALID,87,VALID,0.820494,
2004-01-16, 01:17:00,VALID,918.085,VALID,0,VALID,92.9212,VALID,0,VALID,20.6892,VALID,86,VALID,0.892882,
2004-01-16, 01:18:00,VALID,918.083,VALID,0,VALID,92.9874,VALID,0,VALID,20.6798,VALID,96,VALID,0.498884,
2004-01-16, 01:19:00,VALID,918.096,VALID,0,VALID,93.0776,VALID,0,VALID,20.6467,VALID,105,VALID,0.364702,
2004-01-16, 01:20:00,VALID,918.102,VALID,0,VALID,93.1857,VALID,-0.0169808,VALID,20.6437,VALID,102,VALID,0.489397,
2004-01-16, 01:21:00,VALID,918.102,VALID,0,VALID,93.1934,VALID,0.0169808,VALID,20.6082,VALID,89,VALID,0.84468,
2004-01-16, 01:22:00,VALID,918.093,VALID,0,VALID,93.1717,VALID,0,VALID,20.6214,VALID,78,VALID,0.724888,
2004-01-16, 01:23:00,VALID,918.088,VALID,0,VALID,93.145,VALID,0,VALID,20.6214,VALID,78,VALID,0.799653,
2004-01-16, 01:24:00,VALID,918.084,VALID,0,VALID,93.1984,VALID,0,VALID,20.6082,VALID,90,VALID,0.64974,
2004-01-16, 01:25:00,VALID,918.062,VALID,0,VALID,93.3498,VALID,0,VALID,20.5826,VALID,94,VALID,0.675249,
2004-01-16, 01:26:00,VALID,918.045,VALID,0,VALID,93.5367,VALID,-0.0169808,VALID,20.56,VALID,107,VALID,0.709484,
2004-01-16, 01:27:00,VALID,918.027,VALID,0,VALID,93.6689,VALID,-0.0169808,VALID,20.518,VALID,118,VALID,0.842391,
2004-01-16, 01:28:00,VALID,918.007,VALID,0,VALID,93.9144,VALID,-0.118866,VALID,20.4743,VALID,132,VALID,1.06907,
2004-01-16, 01:29:00,VALID,917.997,VALID,0,VALID,93.997,VALID,-0.0849042,VALID,20.4194,VALID,127,VALID,0.830669,
2004-01-16, 01:30:00,VALID,917.998,VALID,0,VALID,94.3187,VALID,-0.101885,VALID,20.3613,VALID,130,VALID,1.11923,
2004-01-16, 01:31:00,VALID,917.993,VALID,0,VALID,94.5438,VALID,-0.118866,VALID,20.3158,VALID,132,VALID,0.840523,
2004-01-16, 01:32:00,VALID,917.991,VALID,0,VALID,94.7498,VALID,-0.101885,VALID,20.2875,VALID,142,VALID,0.990184,
2004-01-16, 01:33:00,VALID,917.988,VALID,0,VALID,94.9939,VALID,-0.101885,VALID,20.2545,VALID,145,VALID,0.955669,
2004-01-16, 01:34:00,VALID,917.973,VALID,0,VALID,95.0346,VALID,-0.101885,VALID,20.2455,VALID,148,VALID,1.11403,
2004-01-16, 01:35:00,VALID,917.958,VALID,0,VALID,95.0575,VALID,-0.118866,VALID,20.2448,VALID,147,VALID,1.38114,
2004-01-16, 01:36:00,VALID,917.946,VALID,0,VALID,94.952,VALID,-0.118866,VALID,20.2482,VALID,156,VALID,1.04542,
2004-01-16, 01:37:00,VALID,917.95,VALID,0,VALID,94.9571,VALID,-0.118866,VALID,20.2515,VALID,155,VALID,0.840732,
2004-01-16, 01:38:00,VALID,917.942,VALID,0,VALID,94.9876,VALID,-0.0849042,VALID,20.2547,VALID,166,VALID,0.634766,
2004-01-16, 01:39:00,VALID,917.945,VALID,0,VALID,94.9672,VALID,-0.118866,VALID,20.2579,VALID,145,VALID,0.662574,
2004-01-16, 01:40:00,VALID,917.954,VALID,0,VALID,94.9405,VALID,-0.118866,VALID,20.2619,VALID,150,VALID,0.625727,
2004-01-16, 01:41:00,VALID,917.944,VALID,0,VALID,94.8859,VALID,-0.101885,VALID,20.255,VALID,150,VALID,1.16063,
2004-01-16, 01:42:00,VALID,917.964,VALID,0,VALID,94.8464,VALID,-0.101885,VALID,20.2418,VALID,144,VALID,0.535247,
2004-01-16, 01:43:00,VALID,917.961,VALID,0,VALID,94.8757,VALID,-0.0169808,VALID,20.2472,VALID,146,VALID,1.67278,
2004-01-16, 01:44:00,VALID,917.968,VALID,0,VALID,94.6938,VALID,-0.0339617,VALID,20.2666,VALID,139,VALID,0.905488,
2004-01-16, 01:45:00,VALID,917.961,VALID,0,VALID,94.6455,VALID,-0.0339617,VALID,20.2765,VALID,147,VALID,1.31136,
2004-01-16, 01:46:00,VALID,917.937,VALID,0,VALID,94.6023,VALID,-0.0169808,VALID,20.2857,VALID,146,VALID,1.04106,
2004-01-16, 01:47:00,VALID,917.911,VALID,0,VALID,94.5044,VALID,-0.0169808,VALID,20.2986,VALID,162,VALID,0.775112,
2004-01-16, 01:48:00,VALID,917.891,VALID,0,VALID,94.4484,VALID,-0.0339617,VALID,20.3185,VALID,155,VALID,1.19131,
2004-01-16, 01:49:00,VALID,917.874,VALID,0,VALID,94.3938,VALID,-0.0339617,VALID,20.3349,VALID,172,VALID,1.01817,
2004-01-16, 01:50:00,VALID,917.859,VALID,0,VALID,94.3467,VALID,-0.0169808,VALID,20.3409,VALID,155,VALID,0.678163,
2004-01-16, 01:51:00,VALID,917.834,VALID,0,VALID,94.3912,VALID,-0.0169808,VALID,20.3379,VALID,149,VALID,0.883176,
2004-01-16, 01:52:00,VALID,917.81,VALID,0,VALID,94.4751,VALID,0,VALID,20.3185,VALID,140,VALID,1.373,
2004-01-16, 01:53:00,VALID,917.796,VALID,0,VALID,94.4955,VALID,-0.0169808,VALID,20.2986,VALID,129,VALID,1.05859,
2004-01-16, 01:54:00,VALID,917.766,VALID,0,VALID,94.5145,VALID,-0.0169808,VALID,20.2922,VALID,134,VALID,0.897693,
2004-01-16, 01:55:00,VALID,917.738,VALID,0,VALID,94.498,VALID,0,VALID,20.2957,VALID,131,VALID,1.34339,
2004-01-16, 01:56:00,VALID,917.719,VALID,0,VALID,94.3505,VALID,-0.0169808,VALID,20.3183,VALID,137,VALID,1.63523,
2004-01-16, 01:57:00,VALID,917.704,VALID,0,VALID,94.142,VALID,0,VALID,20.3643,VALID,135,VALID,0.954215,
2004-01-16, 01:58:00,VALID,917.706,VALID,0,VALID,94.0021,VALID,-0.0339617,VALID,20.3906,VALID,150,VALID,0.838423,
2004-01-16, 01:59:01,VALID,917.691,VALID,0,VALID,93.9983,VALID,0,VALID,20.3928,VALID,157,VALID,0.736421,
2004-01-16, 02:00:00,VALID,917.692,VALID,0,VALID,94.0364,VALID,-0.0169808,VALID,20.3998,VALID,164,VALID,0.683594,
2004-01-16, 02:01:01,VALID,917.681,VALID,0,VALID,94.0352,VALID,-0.0169808,VALID,20.4095,VALID,168,VALID,0.479102,
2004-01-16, 02:02:00,VALID,917.674,VALID,0,VALID,94.1254,VALID,-0.0509425,VALID,20.4132,VALID,119,VALID,0.977653,
2004-01-16, 02:03:00,VALID,917.664,VALID,0,VALID,94.2704,VALID,0,VALID,20.4063,VALID,163,VALID,0.894903,
2004-01-16, 02:04:00,VALID,917.67,VALID,0,VALID,94.3327,VALID,-0.0339617,VALID,20.4103,VALID,175,VALID,0.390816,
2004-01-16, 02:05:00,VALID,917.656,VALID,0,VALID,94.5069,VALID,-0.0169808,VALID,20.3901,VALID,132,VALID,0.897222,
2004-01-16, 02:06:00,VALID,917.641,VALID,0,VALID,94.6112,VALID,-0.0169808,VALID,20.3702,VALID,145,VALID,0.78683,
2004-01-16, 02:07:01,VALID,917.633,VALID,0,VALID,94.7129,VALID,-0.0679233,VALID,20.3742,VALID,160,VALID,0.598264,
2004-01-16, 02:08:00,VALID,917.614,VALID,0,VALID,94.774,VALID,-0.0509425,VALID,20.3581,VALID,182,VALID,0.371875,
2004-01-16, 02:09:01,VALID,917.615,VALID,0,VALID,94.8121,VALID,-0.0169808,VALID,20.332,VALID,210,VALID,0.277248,
2004-01-16, 02:10:00,VALID,917.601,VALID,0,VALID,94.8617,VALID,-0.0169808,VALID,20.3161,VALID,205,VALID,0.183333,
2004-01-16, 02:11:00,VALID,917.587,VALID,0,VALID,94.9647,VALID,-0.0339617,VALID,20.2997,VALID,97,VALID,0.264323,
2004-01-16, 02:12:00,VALID,917.583,VALID,0,VALID,95.0168,VALID,-0.0509425,VALID,20.3066,VALID,96,VALID,0,
2004-01-16, 02:13:00,VALID,917.59,VALID,0,VALID,94.9876,VALID,0,VALID,20.2902,VALID,96,VALID,0.244606,
2004-01-16, 02:14:00,VALID,917.582,VALID,0,VALID,94.9545,VALID,-0.0169808,VALID,20.2741,VALID,92,VALID,0.392299,
2004-01-16, 02:15:00,VALID,917.573,VALID,0,VALID,94.8884,VALID,-0.0339617,VALID,20.2254,VALID,70,VALID,0.412464,
2004-01-16, 02:16:01,VALID,917.586,VALID,0,VALID,94.9393,VALID,-0.0679233,VALID,20.1874,VALID,70,VALID,0.40625,
2004-01-16, 02:17:00,VALID,917.577,VALID,0,VALID,95.1999,VALID,-0.0169808,VALID,20.132,VALID,70,VALID,0.344113,
2004-01-16, 02:18:00,VALID,917.578,VALID,0,VALID,95.4301,VALID,-0.0169808,VALID,20.1029,VALID,70,VALID,0.32919,
2004-01-16, 02:19:00,VALID,917.563,VALID,0,VALID,95.6908,VALID,-0.0169808,VALID,20.0572,VALID,70,VALID,0.327148,
2004-01-16, 02:20:00,VALID,917.557,VALID,0,VALID,95.926,VALID,-0.0339617,VALID,20.051,VALID,70,VALID,0.30888,
2004-01-16, 02:21:01,VALID,917.564,VALID,0,VALID,95.9146,VALID,-0.0339617,VALID,20.0353,VALID,70,VALID,0.354759,
2004-01-16, 02:22:01,VALID,917.552,VALID,0,VALID,95.8815,VALID,0,VALID,19.9864,VALID,70,VALID,0.339583,
2004-01-16, 02:23:01,VALID,917.554,VALID,0,VALID,96.1333,VALID,-0.0169808,VALID,19.9708,VALID,70,VALID,0.412874,
2004-01-16, 02:24:00,VALID,917.55,VALID,0,VALID,96.2325,VALID,-0.0679233,VALID,19.938,VALID,68,VALID,0.42691,
2004-01-16, 02:25:00,VALID,917.53,VALID,0,VALID,96.4258,VALID,-0.0339617,VALID,19.9253,VALID,67,VALID,0.475174,
2004-01-16, 02:26:00,VALID,917.52,VALID,0,VALID,96.5097,VALID,-0.0339617,VALID,19.9121,VALID,64,VALID,0.503049,
2004-01-16, 02:27:00,VALID,917.513,VALID,0,VALID,96.6203,VALID,0,VALID,19.9186,VALID,85,VALID,0.813689,
2004-01-16, 02:28:00,VALID,917.501,VALID,0,VALID,96.8683,VALID,-0.0339617,VALID,19.9245,VALID,95,VALID,1.19895,
2004-01-16, 02:29:00,VALID,917.478,VALID,0,VALID,96.7742,VALID,-0.0169808,VALID,19.9347,VALID,99,VALID,0.93859,
2004-01-16, 02:30:00,VALID,917.469,VALID,0,VALID,96.7208,VALID,-0.0169808,VALID,19.9444,VALID,109,VALID,1.24758,
2004-01-16, 02:31:00,VALID,917.457,VALID,0,VALID,96.6496,VALID,-0.0339617,VALID,19.9474,VALID,122,VALID,1.20408,
2004-01-16, 02:32:01,VALID,917.452,VALID,0,VALID,96.5567,VALID,-0.0169808,VALID,19.9317,VALID,135,VALID,1.14081,
2004-01-16, 02:33:00,VALID,917.458,VALID,0,VALID,96.7615,VALID,-0.0169808,VALID,19.9216,VALID,134,VALID,1.39141,
2004-01-16, 02:34:00,VALID,917.458,VALID,0,VALID,96.6788,VALID,0,VALID,19.9121,VALID,141,VALID,0.930921,
2004-01-16, 02:35:01,VALID,917.464,VALID,0,VALID,96.7119,VALID,-0.0169808,VALID,19.9027,VALID,140,VALID,0.935122,
2004-01-16, 02:36:01,VALID,917.476,VALID,0,VALID,96.6915,VALID,-0.0509425,VALID,19.8831,VALID,132,VALID,1.10684,
2004-01-16, 02:37:01,VALID,917.465,VALID,0,VALID,96.7831,VALID,-0.0339617,VALID,19.8667,VALID,133,VALID,1.09096,
2004-01-16, 02:38:01,VALID,917.463,VALID,0,VALID,96.9598,VALID,-0.0169808,VALID,19.8607,VALID,133,VALID,1.23765,
2004-01-16, 02:39:00,VALID,917.464,VALID,0,VALID,96.9777,VALID,-0.0169808,VALID,19.8478,VALID,115,VALID,1.09211,
2004-01-16, 02:40:01,VALID,917.448,VALID,0,VALID,97.0133,VALID,-0.0339617,VALID,19.8349,VALID,130,VALID,0.925509,
2004-01-16, 02:41:01,VALID,917.443,VALID,0,VALID,97.0946,VALID,-0.0169808,VALID,19.8217,VALID,129,VALID,1.21289,
2004-01-16, 02:42:01,VALID,917.419,VALID,0,VALID,97.0272,VALID,-0.0169808,VALID,19.8254,VALID,119,VALID,1.20647,
2004-01-16, 02:43:00,VALID,917.409,VALID,0,VALID,96.8632,VALID,-0.0169808,VALID,19.8056,VALID,108,VALID,0.97832,
2004-01-16, 02:44:01,VALID,917.384,VALID,0,VALID,96.909,VALID,-0.0339617,VALID,19.7964,VALID,114,VALID,1.2593,
2004-01-16, 02:45:01,VALID,917.367,VALID,0,VALID,96.8912,VALID,-0.0339617,VALID,19.7929,VALID,111,VALID,1.21761,
2004-01-16, 02:46:00,VALID,917.354,VALID,0,VALID,96.8836,VALID,-0.0509425,VALID,19.7862,VALID,117,VALID,1.35138,
2004-01-16, 02:47:00,VALID,917.333,VALID,0,VALID,96.7551,VALID,0,VALID,19.7964,VALID,108,VALID,0.993712,
2004-01-16, 02:48:01,VALID,917.323,VALID,0,VALID,96.7373,VALID,0,VALID,19.7998,VALID,110,VALID,1.24833,
2004-01-16, 02:49:00,VALID,917.308,VALID,0,VALID,96.7182,VALID,0,VALID,19.813,VALID,112,VALID,1.02809,
2004-01-16, 02:50:00,VALID,917.3,VALID,0,VALID,96.7386,VALID,-0.0509425,VALID,19.8098,VALID,117,VALID,1.39714,
2004-01-16, 02:51:01,VALID,917.288,VALID,0,VALID,96.4639,VALID,-0.0679233,VALID,19.7899,VALID,93,VALID,0.703311,
2004-01-16, 02:52:00,VALID,917.27,VALID,0,VALID,96.4919,VALID,-0.0339617,VALID,19.781,VALID,119,VALID,1.04778,
2004-01-16, 02:53:00,VALID,917.257,VALID,0,VALID,96.427,VALID,-0.0509425,VALID,19.781,VALID,112,VALID,1.08147,
2004-01-16, 02:54:00,VALID,917.24,VALID,0,VALID,96.3075,VALID,-0.0509425,VALID,19.7708,VALID,80,VALID,0.599254,
2004-01-16, 02:55:01,VALID,917.246,VALID,0,VALID,96.3304,VALID,-0.0169808,VALID,19.768,VALID,104,VALID,0.929874,
2004-01-16, 02:56:00,VALID,917.23,VALID,0,VALID,96.3368,VALID,-0.0509425,VALID,19.7546,VALID,99,VALID,0.726017,
2004-01-16, 02:57:00,VALID,917.203,VALID,0,VALID,96.3393,VALID,-0.0339617,VALID,19.7512,VALID,100,VALID,0.768787,
2004-01-16, 02:58:01,VALID,917.199,VALID,0,VALID,96.3647,VALID,0,VALID,19.7541,VALID,125,VALID,0.911685,
2004-01-16, 02:59:00,VALID,917.189,VALID,0,VALID,96.483,VALID,0,VALID,19.7603,VALID,134,VALID,0.835764,
2004-01-16, 03:00:00,VALID,917.177,VALID,0,VALID,96.3368,VALID,0,VALID,19.7671,VALID,107,VALID,0.726935,
2004-01-16, 03:01:00,VALID,917.171,VALID,0,VALID,96.3775,VALID,-0.0169808,VALID,19.7762,VALID,118,VALID,0.898801,
2004-01-16, 03:02:01,VALID,917.154,VALID,0,VALID,96.291,VALID,0,VALID,19.7757,VALID,95,VALID,0.905895,
2004-01-16, 03:03:00,VALID,917.15,VALID,0,VALID,96.0697,VALID,0,VALID,19.7961,VALID,115,VALID,0.256541,
2004-01-16, 03:04:01,VALID,917.13,VALID,0,VALID,96.0735,VALID,0,VALID,19.7864,VALID,115,VALID,0.0884146,
2004-01-16, 03:05:00,VALID,917.114,VALID,0,VALID,96.2516,VALID,-0.0169808,VALID,19.7926,VALID,115,VALID,0.41276,
2004-01-16, 03:06:01,VALID,917.101,VALID,0,VALID,96.1689,VALID,0.0339617,VALID,19.7929,VALID,115,VALID,0.0247713,
2004-01-16, 03:07:01,VALID,917.093,VALID,0,VALID,96.1435,VALID,0,VALID,19.7862,VALID,90,VALID,0.236579,
2004-01-16, 03:08:01,VALID,917.088,VALID,0,VALID,96.1524,VALID,0.0169808,VALID,19.7993,VALID,69,VALID,0.200581,
2004-01-16, 03:09:00,VALID,917.078,VALID,0,VALID,95.9731,VALID,-0.0169808,VALID,19.7897,VALID,66,VALID,0.145774,
2004-01-16, 03:10:01,VALID,917.066,VALID,0,VALID,95.9184,VALID,0.0169808,VALID,19.7703,VALID,55,VALID,0.271129,
2004-01-16, 03:11:00,VALID,917.051,VALID,0,VALID,96.0049,VALID,0,VALID,19.7598,VALID,28,VALID,0.303125,
2004-01-16, 03:12:00,VALID,917.041,VALID,0,VALID,95.7747,VALID,-0.0169808,VALID,19.7477,VALID,28,VALID,0.185742,
2004-01-16, 03:13:01,VALID,917.033,VALID,0,VALID,96.0227,VALID,0,VALID,19.7412,VALID,40,VALID,0.394903,
2004-01-16, 03:14:00,VALID,917.026,VALID,0,VALID,96.1931,VALID,0,VALID,19.7444,VALID,111,VALID,0.827257,
2004-01-16, 03:15:00,VALID,917.013,VALID,0,VALID,96.0061,VALID,-0.0169808,VALID,19.7611,VALID,86,VALID,0.506324,
2004-01-16, 03:16:01,VALID,917,VALID,0,VALID,95.734,VALID,0,VALID,19.7348,VALID,83,VALID,0.671007,
2004-01-16, 03:17:01,VALID,916.987,VALID,0,VALID,95.8332,VALID,-0.0169808,VALID,19.7283,VALID,112,VALID,0.893403,
2004-01-16, 03:18:00,VALID,916.984,VALID,0,VALID,95.7378,VALID,0,VALID,19.7318,VALID,82,VALID,1.05687,
2004-01-16, 03:19:01,VALID,916.976,VALID,0,VALID,95.9718,VALID,-0.0169808,VALID,19.7353,VALID,136,VALID,0.919389,
2004-01-16, 03:20:00,VALID,916.946,VALID,0,VALID,96.0532,VALID,0,VALID,19.7444,VALID,143,VALID,1.06395,
2004-01-16, 03:21:00,VALID,916.944,VALID,0,VALID,95.9616,VALID,0,VALID,19.7708,VALID,150,VALID,0.675586,
2004-01-16, 03:22:00,VALID,916.951,VALID,0,VALID,95.9031,VALID,0.0169808,VALID,19.7832,VALID,122,VALID,0.954883,
2004-01-16, 03:23:01,VALID,916.923,VALID,0,VALID,95.9171,VALID,0,VALID,19.7931,VALID,145,VALID,0.530692,
2004-01-16, 03:24:00,VALID,916.9,VALID,0,VALID,95.8841,VALID,-0.0169808,VALID,19.8026,VALID,120,VALID,0.80957,
2004-01-16, 03:25:01,VALID,916.897,VALID,0,VALID,96.0227,VALID,0,VALID,19.8155,VALID,149,VALID,0.767064,
2004-01-16, 03:26:00,VALID,916.885,VALID,0,VALID,96.0799,VALID,0,VALID,19.822,VALID,141,VALID,0.919444,
2004-01-16, 03:27:00,VALID,916.904,VALID,0,VALID,95.8968,VALID,0,VALID,19.8252,VALID,99,VALID,0.919588,
2004-01-16, 03:28:01,VALID,916.901,VALID,0,VALID,95.7887,VALID,0.0169808,VALID,19.8088,VALID,125,VALID,0.262173,
2004-01-16, 03:29:00,VALID,916.901,VALID,0,VALID,95.7912,VALID,0.0169808,VALID,19.8058,VALID,54,VALID,0.354651,
2004-01-16, 03:30:00,VALID,916.928,VALID,0,VALID,95.8942,VALID,0.0169808,VALID,19.7998,VALID,256,VALID,0.934152,
2004-01-16, 03:31:01,VALID,916.947,VALID,0,VALID,95.9235,VALID,0,VALID,19.7892,VALID,167,VALID,0.578125,
2004-01-16, 03:32:00,VALID,916.978,VALID,0,VALID,95.865,VALID,0,VALID,19.8021,VALID,229,VALID,0.475074,
2004-01-16, 03:33:00,VALID,916.992,VALID,0,VALID,95.8981,VALID,0,VALID,19.7961,VALID,223,VALID,0.381324,
2004-01-16, 03:34:00,VALID,916.997,VALID,0,VALID,95.9209,VALID,0,VALID,19.7961,VALID,194,VALID,0.0933866,